Location: Unspecified
(35.7250°N, 0.0000°E)
Time: 18:41:21
(UTC+00:00)

Vanguard 1 - Pass Details

Date: 02 July 2019
Orbit: 653 x 3830 km, 34.3° (Epoch: 18 July)

Event Time Altitude Azimuth Distance (km) Brightness Sun altitude
Rises 23:35:11 0° 237° (WSW) 7,635 14.4 -30.8°
Reaches altitude 10° 23:40:08 10° 235° (SW) 6,791 14.1 -30.9°
Maximum altitude 00:03:34 69° 158° (SSE) 3,732 12.6 -31.2°
Drops below altitude 10° 00:21:12 10° 79° (E) 5,347 13.9 -31.1°
Sets 00:24:33 0° 78° (ENE) 6,020 14.3 -31.0°
